Location: Leeds
(37.2390°N, 113.3580°W)
Time: 04:51:48
(UTC-06:00)

SL-08 RB Rocket - Visible Passes

Search period start: 24 July 2017 00:00
Search period end: 03 August 2017 00:00
Orbit: 648 x 684 km, 98.0° (Epoch: 23 July)

Date Brightness Start Highest point End Pass type
(mag) Time Alt. Az. Time Alt. Az. Time Alt. Az.
24 Jul 4.6 22:13:08 24° ESE 22:15:05 33° ENE 22:19:16 10° N visible
24 Jul 5.6 23:51:16 20° WSW 23:52:08 22° W 23:55:43 10° NW visible
25 Jul 3.7 22:45:10 45° SSE 22:46:34 74° ENE 22:51:15 10° N visible
26 Jul 5.6 21:39:05 11° E 21:41:37 16° ENE 21:44:21 10° NNE visible
26 Jul 4.4 23:17:13 42° SW 23:18:12 49° W 23:22:45 10° NNW visible
27 Jul 4.7 22:11:07 24° ESE 22:12:57 32° ENE 22:17:04 10° N visible
27 Jul 5.6 23:49:16 22° WSW 23:49:58 23° W 23:53:39 10° NW visible
28 Jul 3.7 22:43:11 47° SE 22:44:26 70° ENE 22:49:05 10° N visible
29 Jul 5.7 21:37:05 11° E 21:39:28 15° ENE 21:42:05 10° NNE visible
29 Jul 4.3 23:15:14 46° SW 23:16:03 52° W 23:20:37 10° NNW visible
30 Jul 4.8 22:09:08 24° ESE 22:10:49 30° ENE 22:14:52 10° N visible
30 Jul 5.5 23:47:17 23° WSW 23:47:48 24° W 23:51:33 10° NW visible
31 Jul 3.7 22:41:12 49° SE 22:42:16 67° ENE 22:46:54 10° N visible
01 Aug 6.4 00:19:20 10° W 00:19:42 10° W 00:20:37 10° W visible
01 Aug 5.7 21:35:07 11° E 21:37:21 14° ENE 21:39:46 10° NNE visible
01 Aug 4.2 23:13:16 50° SW 23:13:53 55° W 23:18:27 10° NNW visible
02 Aug 4.8 22:07:11 24° ESE 22:08:40 29° ENE 22:12:39 10° N visible
02 Aug 5.4 23:45:19 25° WSW 23:45:37 25° W 23:49:27 10° NW visible
